FW0394 Weather Reports


Display with metric or nautical units.
time (UTC)temp
F
wind
direction
speed
MPH
gust
MPH
rain 1hr
in
rain 24hr
in
rain mn
in
humidity
%
barometer
mb
20260508014003 65 351 0.0 1.0 0.00 0.00 0.00 30 1008.4
20260508013503 66 351 0.0 1.0 0.00 0.00 0.00 29 1008.3
20260508013213 66 351 0.0 1.0 0.00 0.00 0.00 30 1008.3
20260508012503 66 347 0.0 4.0 0.00 0.00 0.00 28 1008.2
20260508012003 67 346 1.0 4.0 0.00 0.00 0.00 27 1008.2
20260508011503 67 343 1.0 4.0 0.00 0.00 0.00 27 1008.0
20260508011004 67 315 1.0 3.0 0.00 0.00 0.00 26 1008.0
20260508010503 68 311 1.0 5.0 0.00 0.00 0.00 27 1007.9
20260508010003 68 337 1.0 5.0 0.00 0.00 0.00 28 1008.0
20260508005503 68 360 1.0 3.0 0.00 0.00 0.00 27 1007.9
20260508005003 68 340 1.0 3.0 0.00 0.00 0.00 28 1007.8
20260508004213 69 326 1.0 4.0 0.00 0.00 0.00 27 1007.7
20260508003503 69 340 1.0 4.0 0.00 0.00 0.00 26 1007.7
20260508003213 69 348 1.0 4.0 0.00 0.00 0.00 27 1007.6
20260508002503 70 320 1.0 8.0 0.00 0.00 0.00 27 1007.6
20260508002003 70 307 2.0 8.0 0.00 0.00 0.00 25 1007.6
20260508001503 70 310 2.0 8.0 0.00 0.00 0.00 25 1007.7
20260508001003 70 342 1.0 6.0 0.00 0.00 0.00 28 1007.6
20260508000504 70 14 1.0 6.0 0.00 0.00 0.00 28 1007.6
20260508000003 70 1 2.0 5.0 0.00 0.00 0.00 27 1007.4
20260507235714 70 326 2.0 8.0 0.00 0.00 0.00 26 1007.5
20260507235213 71 279 3.0 8.0 0.00 0.00 0.00 25 1007.4
20260507234714 71 281 3.0 9.0 0.00 0.00 0.00 25 1007.5
20260507234003 71 320 3.0 9.0 0.00 0.00 0.00 23 1007.6
20260507233504 71 311 3.0 9.0 0.00 0.00 0.00 24 1007.6
20260507233003 72 292 2.0 9.0 0.00 0.00 0.00 25 1007.6
20260507232503 72 283 2.0 9.0 0.00 0.00 0.00 25 1007.5
20260507232003 72 281 3.0 9.0 0.00 0.00 0.00 24 1007.6
20260507231503 72 284 3.0 9.0 0.00 0.00 0.00 24 1007.5
20260507231004 72 280 3.0 10.0 0.00 0.00 0.00 26 1007.5
20260507230503 72 279 3.0 13.0 0.00 0.00 0.00 25 1007.5
20260507230003 73 283 3.0 13.0 0.00 0.00 0.00 26 1007.5
20260507225504 73 297 3.0 10.0 0.00 0.00 0.00 24 1007.5
20260507225003 73 283 3.0 10.0 0.00 0.00 0.00 22 1007.4
20260507224718 73 270 3.0 9.0 0.00 0.00 0.00 23 1007.5
20260507224003 73 268 3.0 11.0 0.00 0.00 0.00 25 1007.6
20260507223504 73 268 3.0 9.0 0.00 0.00 0.00 24 1007.5
20260507223212 73 261 3.0 9.0 0.00 0.00 0.00 27 1007.6
20260507222503 73 258 4.0 13.0 0.00 0.00 0.00 27 1007.7
20260507222004 73 270 3.0 13.0 0.00 0.00 0.00 26 1007.7
20260507221503 73 244 4.0 9.0 0.00 0.00 0.00 28 1007.6
20260507221003 73 240 5.0 11.0 0.00 0.00 0.00 27 1007.7
20260507220713 73 254 5.0 11.0 0.00 0.00 0.00 27 1007.7
20260507220214 73 272 3.0 11.0 0.00 0.00 0.00 25 1007.6
20260507215503 72 288 3.0 10.0 0.00 0.00 0.00 28 1007.6
20260507215003 73 283 3.0 10.0 0.00 0.00 0.00 26 1007.7
20260507214503 73 289 3.0 8.0 0.00 0.00 0.00 27 1007.7
20260507214003 73 294 3.0 8.0 0.00 0.00 0.00 30 1007.8
20260507213713 73 299 3.0 9.0 0.00 0.00 0.00 27 1007.7
20260507213003 73 296 4.0 11.0 0.00 0.00 0.00 29 1007.8
20260507212713 73 278 5.0 11.0 0.00 0.00 0.00 29 1007.8
20260507212003 73 261 5.0 12.0 0.00 0.00 0.00 26 1007.8
20260507211503 73 269 4.0 11.0 0.00 0.00 0.00 26 1007.9
20260507211003 73 286 3.0 11.0 0.00 0.00 0.00 24 1007.9
20260507210503 73 308 4.0 14.0 0.00 0.00 0.00 30 1007.8
20260507210005 73 314 4.0 14.0 0.00 0.00 0.00 26 1008.0
20260507205503 73 293 2.0 11.0 0.00 0.00 0.00 27 1007.9
20260507205003 74 255 3.0 13.0 0.00 0.00 0.00 29 1008.0
20260507204713 73 267 5.0 14.0 0.00 0.00 0.00 30 1008.0
20260507204003 73 292 5.0 14.0 0.00 0.00 0.00 31 1008.1
20260507203503 73 266 4.0 13.0 0.00 0.00 0.00 27 1008.1
20260507203003 73 254 4.0 12.0 0.00 0.00 0.00 33 1008.1
20260507202503 73 270 4.0 12.0 0.00 0.00 0.00 30 1008.2
20260507202003 73 279 4.0 12.0 0.00 0.00 0.00 30 1008.2
20260507201503 73 274 3.0 10.0 0.00 0.00 0.00 32 1008.2
20260507201003 73 271 3.0 10.0 0.00 0.00 0.00 33 1008.2
20260507200503 73 250 3.0 11.0 0.00 0.00 0.00 33 1008.3
20260507200003 72 251 5.0 13.0 0.00 0.00 0.00 31 1008.3
20260507195504 72 263 5.0 13.0 0.00 0.00 0.00 29 1008.2
20260507195003 71 266 3.0 14.0 0.00 0.00 0.00 34 1008.2
20260507194503 71 250 5.0 14.0 0.00 0.00 0.00 30 1008.2
20260507194003 72 246 5.0 15.0 0.00 0.00 0.00 31 1008.2
20260507193503 73 255 4.0 15.0 0.00 0.00 0.00 30 1008.2
20260507193213 73 251 5.0 12.0 0.00 0.00 0.00 33 1008.2
20260507192503 72 254 5.0 12.0 0.00 0.00 0.00 30 1008.2
20260507192003 72 265 4.0 10.0 0.00 0.00 0.00 37 1008.1
20260507191003 72 262 5.0 11.0 0.00 0.00 0.00 33 1008.2
20260507190503 72 248 5.0 13.0 0.00 0.00 0.00 34 1008.2
20260507190005 72 236 6.0 14.0 0.00 0.00 0.00 35 1008.2
20260507185503 72 232 5.0 14.0 0.00 0.00 0.00 34 1008.3
20260507185003 71 230 6.0 17.0 0.00 0.00 0.00 36 1008.3
20260507184504 72 237 8.0 17.0 0.00 0.00 0.00 33 1008.4
20260507184003 72 236 5.0 15.0 0.00 0.00 0.00 35 1008.4
20260507183503 71 223 3.0 10.0 0.00 0.00 0.00 36 1008.3
20260507183004 70 243 5.0 12.0 0.00 0.00 0.00 38 1008.6
20260507182503 70 244 7.0 15.0 0.00 0.00 0.00 36 1008.6
20260507182003 70 237 6.0 15.0 0.00 0.00 0.00 34 1008.6
20260507181503 70 235 4.0 10.0 0.00 0.00 0.00 35 1008.7
20260507181003 69 226 5.0 12.0 0.00 0.00 0.00 35 1008.7
20260507180503 70 234 6.0 15.0 0.00 0.00 0.00 38 1008.8
20260507180003 70 250 6.0 15.0 0.00 0.00 0.00 39 1008.9
20260507175714 69 243 5.0 13.0 0.00 0.00 0.00 37 1008.8
20260507175213 70 243 6.0 12.0 0.00 0.00 0.00 35 1009.0
20260507174503 70 261 6.0 14.0 0.00 0.00 0.00 39 1009.1
20260507174003 69 244 6.0 16.0 0.00 0.00 0.00 36 1009.1
20260507173503 69 241 5.0 16.0 0.00 0.00 0.00 35 1009.3
20260507173004 69 254 6.0 18.0 0.00 0.00 0.00 36 1009.3
20260507172504 68 241 5.0 18.0 0.00 0.00 0.00 36 1009.3
20260507172212 68 231 4.0 10.0 0.00 0.00 0.00 36 1009.3
20260507171503 68 224 4.0 12.0 0.00 0.00 0.00 39 1009.5
20260507171003 68 222 6.0 12.0 0.00 0.00 0.00 41 1009.5
20260507170503 67 237 7.0 13.0 0.00 0.00 0.00 35 1009.6
20260507170214 67 243 6.0 13.0 0.00 0.00 0.00 36 1009.6
20260507165503 67 241 6.0 13.0 0.00 0.00 0.00 38 1009.5
20260507165003 66 237 5.0 13.0 0.00 0.00 0.00 37 1009.7
20260507164503 66 222 5.0 12.0 0.00 0.00 0.00 43 1009.7
20260507164003 66 221 5.0 12.0 0.00 0.00 0.00 39 1009.7
20260507163503 66 225 5.0 11.0 0.00 0.00 0.00 42 1009.8
20260507163003 65 216 4.0 11.0 0.00 0.00 0.00 41 1009.8
20260507162504 65 217 5.0 12.0 0.00 0.00 0.00 41 1009.9
20260507162003 64 226 5.0 12.0 0.00 0.00 0.00 39 1010.0
20260507161503 64 221 5.0 10.0 0.00 0.00 0.00 41 1010.0
20260507161003 64 224 5.0 12.0 0.00 0.00 0.00 47 1010.0
20260507160503 64 245 5.0 12.0 0.00 0.00 0.00 43 1010.1
20260507160214 63 239 5.0 10.0 0.00 0.00 0.00 48 1010.2
20260507155503 62 223 5.0 10.0 0.00 0.00 0.00 45 1010.3
20260507155214 62 229 5.0 10.0 0.00 0.00 0.00 47 1010.4
20260507154503 61 243 5.0 12.0 0.00 0.00 0.00 48 1010.6
20260507154003 61 246 6.0 12.0 0.00 0.00 0.00 50 1010.6
20260507153504 61 248 6.0 14.0 0.00 0.00 0.00 49 1010.7
20260507153214 61 245 6.0 14.0 0.00 0.00 0.00 50 1010.8
20260507152503 60 233 5.0 15.0 0.00 0.00 0.00 52 1010.8
20260507152214 60 234 6.0 15.0 0.00 0.00 0.00 51 1010.8
20260507151504 59 224 5.0 16.0 0.00 0.00 0.00 53 1010.9
20260507151003 58 220 4.0 16.0 0.00 0.00 0.00 55 1010.9
20260507150503 58 224 4.0 12.0 0.00 0.00 0.00 57 1010.9
20260507150003 58 225 5.0 12.0 0.00 0.00 0.00 55 1010.9
20260507145712 57 226 6.0 12.0 0.00 0.00 0.00 57 1010.9
20260507145003 57 231 7.0 14.0 0.00 0.00 0.00 57 1011.0
20260507144503 56 237 6.0 14.0 0.00 0.00 0.00 58 1011.1
20260507144003 56 242 6.0 18.0 0.00 0.00 0.00 59 1011.0
20260507143503 56 237 5.0 18.0 0.00 0.00 0.00 59 1011.1
20260507143003 55 229 4.0 12.0 0.00 0.00 0.00 60 1011.1
20260507142714 55 234 4.0 12.0 0.00 0.00 0.00 62 1011.2
20260507142003 54 240 5.0 11.0 0.00 0.00 0.00 63 1011.2
20260507141503 54 238 4.0 11.0 0.00 0.00 0.00 63 1011.2
20260507141003 53 240 4.0 11.0 0.00 0.00 0.00 64 1011.2
20260507140504 53 245 4.0 10.0 0.00 0.00 0.00 65 1011.2
20260507140213 53 233 4.0 10.0 0.00 0.00 0.00 66 1011.4
20260507135503 52 230 6.0 13.0 0.00 0.00 0.00 66 1011.3
20260507135004 52 232 5.0 10.0 0.00 0.00 0.00 67 1011.4
20260507134503 52 225 5.0 12.0 0.00 0.00 0.00 67 1011.4
20260507134003 51 222 5.0 12.0 0.00 0.00 0.00 68 1011.4
20260507133503 51 224 4.0 10.0 0.00 0.00 0.00 69 1011.3
20260507133003 51 242 5.0 11.0 0.00 0.00 0.00 69 1011.4
20260507132714 50 252 5.0 12.0 0.00 0.00 0.00 70 1011.4
20260507132003 50 233 5.0 12.0 0.00 0.00 0.00 71 1011.4
20260507131503 50 225 5.0 11.0 0.00 0.00 0.00 71 1011.5
20260507131003 49 221 5.0 11.0 0.00 0.00 0.00 71 1011.5
20260507130503 49 230 4.0 11.0 0.00 0.00 0.00 72 1011.6
20260507130003 49 241 4.0 10.0 0.00 0.00 0.00 73 1011.7
20260507125503 48 244 5.0 13.0 0.00 0.00 0.00 74 1011.8
20260507125004 48 229 5.0 13.0 0.00 0.00 0.00 74 1011.7
20260507124504 48 217 5.0 9.0 0.00 0.00 0.00 74 1011.7
20260507124003 48 230 5.0 11.0 0.00 0.00 0.00 75 1011.7
20260507123503 47 232 4.0 11.0 0.00 0.00 0.00 75 1011.7
20260507123003 47 221 3.0 8.0 0.00 0.00 0.00 76 1011.7
20260507122503 47 220 3.0 9.0 0.00 0.00 0.00 76 1011.7
20260507122213 47 227 3.0 13.0 0.00 0.00 0.00 76 1011.7
20260507121503 46 235 4.0 13.0 0.00 0.00 0.00 76 1011.7
20260507121003 46 228 4.0 11.0 0.00 0.00 0.00 76 1011.7
20260507120503 46 233 4.0 11.0 0.00 0.00 0.00 76 1011.8
20260507120004 46 226 4.0 11.0 0.00 0.00 0.00 76 1011.8
20260507115503 46 225 4.0 10.0 0.00 0.00 0.00 76 1011.7
20260507115003 46 235 3.0 9.0 0.00 0.00 0.00 76 1011.8
20260507114504 46 230 4.0 12.0 0.00 0.00 0.00 76 1011.7
20260507114003 46 222 4.0 12.0 0.00 0.00 0.00 76 1011.8
20260507113503 46 215 3.0 9.0 0.00 0.00 0.00 75 1011.8
20260507113214 46 216 3.0 9.0 0.00 0.00 0.00 75 1011.7
20260507112503 46 229 3.0 12.0 0.00 0.00 0.00 75 1011.7
20260507112003 46 233 4.0 12.0 0.00 0.00 0.00 75 1011.8
20260507111504 46 238 5.0 13.0 0.00 0.00 0.00 74 1011.7
20260507111003 47 236 5.0 13.0 0.00 0.00 0.00 74 1011.7
20260507110503 47 231 4.0 10.0 0.00 0.00 0.00 74 1011.8
20260507110003 47 225 4.0 9.0 0.00 0.00 0.00 74 1011.8
20260507105713 47 222 4.0 9.0 0.00 0.00 0.00 74 1011.7
20260507105214 47 223 3.0 9.0 0.00 0.00 0.00 74 1011.8
20260507104504 47 232 4.0 14.0 0.00 0.00 0.00 74 1011.7
20260507104003 47 228 4.0 10.0 0.00 0.00 0.00 74 1011.7
20260507103503 47 224 4.0 9.0 0.00 0.00 0.00 74 1011.8
20260507103003 47 228 4.0 9.0 0.00 0.00 0.00 74 1011.7
20260507102503 47 222 4.0 9.0 0.00 0.00 0.00 74 1011.6
20260507102003 47 212 3.0 9.0 0.00 0.00 0.00 73 1011.7
20260507101713 47 211 3.0 9.0 0.00 0.00 0.00 73 1011.7
20260507101003 47 216 3.0 8.0 0.00 0.00 0.00 73 1011.8
20260507100503 47 211 4.0 11.0 0.00 0.00 0.00 73 1011.8
20260507100003 47 207 4.0 11.0 0.00 0.00 0.00 73 1011.8
20260507095503 47 211 4.0 9.0 0.00 0.00 0.00 73 1011.9
20260507095003 47 214 4.0 9.0 0.00 0.00 0.00 72 1011.9
20260507094503 47 214 4.0 9.0 0.00 0.00 0.00 72 1011.9
20260507094004 47 223 4.0 9.0 0.00 0.00 0.00 72 1011.9
20260507093503 47 222 4.0 9.0 0.00 0.00 0.00 72 1012.0
20260507093003 47 212 4.0 10.0 0.00 0.00 0.00 71 1012.1
20260507092504 47 219 4.0 10.0 0.00 0.00 0.00 71 1012.1
20260507092003 47 225 4.0 8.0 0.00 0.00 0.00 71 1012.2
20260507091503 47 219 4.0 9.0 0.00 0.00 0.00 71 1012.2
20260507091005 47 212 4.0 9.0 0.00 0.00 0.00 71 1012.3
20260507090503 48 213 3.0 7.0 0.00 0.00 0.00 70 1012.3
20260507090004 48 222 4.0 11.0 0.00 0.00 0.00 70 1012.4
20260507085712 48 221 4.0 11.0 0.00 0.00 0.00 69 1012.4
20260507085003 48 217 3.0 7.0 0.00 0.00 0.00 69 1012.6
20260507084504 48 220 3.0 9.0 0.00 0.00 0.00 68 1012.5
20260507084003 48 219 3.0 9.0 0.00 0.00 0.00 68 1012.6
20260507083503 48 223 3.0 10.0 0.00 0.00 0.00 67 1012.6
20260507083004 48 232 4.0 10.0 0.00 0.00 0.00 67 1012.6
20260507082714 48 226 3.0 10.0 0.00 0.00 0.00 67 1012.6
20260507082213 48 223 4.0 12.0 0.00 0.00 0.00 67 1012.8
20260507081503 48 232 5.0 12.0 0.00 0.00 0.00 66 1012.8
20260507081003 48 234 5.0 10.0 0.00 0.00 0.00 66 1012.9
20260507080503 48 231 4.0 10.0 0.00 0.00 0.00 65 1012.9
20260507080003 48 226 4.0 10.0 0.00 0.00 0.00 65 1013.1
20260507075503 48 227 4.0 11.0 0.00 0.00 0.00 64 1013.1
20260507075003 48 229 4.0 11.0 0.00 0.00 0.00 64 1013.1
20260507074503 48 226 3.0 8.0 0.00 0.00 0.00 64 1013.1
20260507074003 48 220 3.0 9.0 0.00 0.00 0.00 63 1013.2
20260507073504 48 221 3.0 9.0 0.00 0.00 0.00 63 1013.2
20260507073003 48 226 3.0 8.0 0.00 0.00 0.00 62 1013.3
20260507072503 48 227 3.0 8.0 0.00 0.00 0.00 62 1013.3
20260507072003 47 222 3.0 7.0 0.00 0.00 0.00 62 1013.5
20260507071504 47 214 3.0 7.0 0.00 0.00 0.00 62 1013.5
20260507071003 47 220 2.0 6.0 0.00 0.00 0.00 62 1013.6
20260507070504 47 227 2.0 5.0 0.00 0.00 0.00 62 1013.6
20260507070007 46 227 2.0 5.0 0.00 0.00 0.00 63 1013.7
20260507065503 46 236 2.0 4.0 0.00 0.00 0.00 63 1013.7
20260507065003 46 245 2.0 4.0 0.00 0.00 0.00 63 1013.8
20260507064503 45 250 2.0 4.0 0.00 0.00 0.00 64 1013.8
20260507064003 45 252 2.0 3.0 0.00 0.00 0.00 65 1013.9
20260507063503 45 253 1.0 4.0 0.00 0.00 0.00 66 1014.0
20260507063003 45 254 1.0 4.0 0.00 0.00 0.00 65 1014.0
20260507062503 45 254 1.0 2.0 0.00 0.00 0.00 64 1014.0
20260507062003 45 254 1.0 2.0 0.00 0.00 0.00 62 1014.1
20260507061503 45 254 0.0 2.0 0.00 0.00 0.00 61 1014.1
20260507061003 45 254 0.0 1.0 0.00 0.00 0.00 60 1014.2
20260507060503 45 254 0.0 2.0 0.00 0.00 0.00 59 1014.2
20260507060003 45 254 0.0 2.0 0.00 0.00 0.00 59 1014.3
20260507055503 46 254 0.0 2.0 0.00 0.00 0.00 58 1014.2
20260507055003 46 0 0.0 0.0 0.00 0.00 0.00 58 1014.3
20260507054503 46 0 0.0 0.0 0.00 0.00 0.00 57 1014.4
20260507054003 46 254 0.0 1.0 0.00 0.00 0.00 57 1014.3
20260507053503 46 254 0.0 3.0 0.00 0.00 0.00 57 1014.4
20260507053004 46 254 1.0 3.0 0.00 0.00 0.00 56 1014.4
20260507052503 46 254 1.0 2.0 0.00 0.00 0.00 57 1014.3
20260507052003 47 257 1.0 3.0 0.00 0.00 0.00 55 1014.4
20260507051713 47 257 1.0 3.0 0.00 0.00 0.00 57 1014.3
20260507051214 47 259 0.0 2.0 0.00 0.00 0.00 56 1014.4
20260507050503 47 259 0.0 3.0 0.00 0.00 0.00 56 1014.4
20260507050005 47 260 1.0 2.0 0.00 0.00 0.00 56 1014.4
20260507045713 47 260 1.0 2.0 0.00 0.00 0.00 54 1014.4
20260507045003 47 260 0.0 1.0 0.00 0.00 0.00 53 1014.4
20260507044503 47 260 0.0 2.0 0.00 0.00 0.00 53 1014.4
20260507044003 47 261 0.0 2.0 0.00 0.00 0.00 53 1014.5
20260507043503 47 261 0.0 2.0 0.00 0.00 0.00 50 1014.5
20260507043003 47 0 0.0 0.0 0.00 0.00 0.00 53 1014.6
20260507042503 47 0 0.0 0.0 0.00 0.00 0.00 55 1014.6
20260507042003 47 0 0.0 1.0 0.00 0.00 0.00 54 1014.7
20260507041503 47 261 0.0 1.0 0.00 0.00 0.00 52 1014.7
20260507041004 47 261 0.0 1.0 0.00 0.00 0.00 52 1014.7
20260507040503 47 0 0.0 0.0 0.00 0.00 0.00 53 1014.7
20260507040003 47 0 0.0 0.0 0.00 0.00 0.00 55 1014.7
20260507035503 47 261 0.0 2.0 0.00 0.00 0.00 53 1014.8
20260507035003 47 261 0.0 2.0 0.00 0.00 0.00 52 1014.8
20260507034503 48 0 0.0 0.0 0.00 0.00 0.00 54 1014.9
20260507034003 48 0 0.0 0.0 0.00 0.00 0.00 52 1014.9
20260507033712 48 261 0.0 1.0 0.00 0.00 0.00 51 1014.9
20260507033003 48 261 0.0 1.0 0.00 0.00 0.00 51 1015.0
20260507032504 48 261 1.0 3.0 0.00 0.00 0.00 51 1015.0
20260507032003 49 261 1.0 3.0 0.00 0.00 0.00 49 1015.1
20260507031503 49 261 0.0 3.0 0.00 0.00 0.00 47 1015.0
20260507031003 49 261 0.0 1.0 0.00 0.00 0.00 46 1015.0
20260507030503 49 261 0.0 1.0 0.00 0.00 0.00 46 1015.0
20260507030213 50 261 0.0 1.0 0.00 0.00 0.00 48 1015.0
20260507025503 50 0 0.0 0.0 0.00 0.00 0.00 45 1015.0
20260507025003 50 0 0.0 0.0 0.00 0.00 0.00 44 1014.9
20260507024503 50 261 0.0 1.0 0.00 0.00 0.00 43 1014.9
20260507024213 50 261 0.0 1.0 0.00 0.00 0.00 44 1014.9
20260507023503 50 261 0.0 1.0 0.00 0.00 0.00 43 1014.9
20260507023003 51 261 0.0 1.0 0.00 0.00 0.00 43 1014.8
20260507022503 51 261 0.0 1.0 0.00 0.00 0.00 44 1014.7
20260507022003 51 261 0.0 1.0 0.00 0.00 0.00 41 1014.8
20260507021503 51 0 0.0 1.0 0.00 0.00 0.00 42 1014.7
20260507021003 52 0 0.0 0.0 0.00 0.00 0.00 41 1014.7
20260507020714 52 0 0.0 0.0 0.00 0.00 0.00 40 1014.7
20260507020003 52 0 0.0 0.0 0.00 0.00 0.00 43 1014.6
20260507015503 53 0 0.0 0.0 0.00 0.00 0.00 39 1014.7
20260507015003 53 0 0.0 0.0 0.00 0.00 0.00 38 1014.7
20260507014714 54 0 0.0 0.0 0.00 0.00 0.00 38 1014.7